contact:dominique.lefevre@mio.osupytheas.fr, maurice.libes@osupytheas.fr, didier.mallarino@osupytheas.fr
Project:EMSO http://www.emso-fr.org/EMSO-France
Depth: 2436.0 m
Title:EMSO Ligure Ouest : Data MII capteur AQUADOPP
Date,Latitude,Longitude,X_East,Y_North,Z_Up,Amplitude_X,Amplitude_Y,Amplitude_Z,Batterie,SoundSpeed,Heading,Pitch,Roll,Pressure,TIS,Speed,Direction
, degrees North, degrees East, m.s-1, m.s-1,m.s-1, 1, 1, 1, Volt, m.s-1, degree, degree, degree, dbar, degree_C, m.s-1, degree
2020-01-21T00:04:03,42.805,6.029,0.033,-0.031,-0.029,106.0,106.0,103.0,13.4,1505.2,326.3,-0.7,1.8,2470.28,13.3,0.045,133.2
2020-01-21T00:07:03,42.805,6.029,0.054,-0.023,-0.012,105.0,106.0,103.0,13.4,1505.3,326.5,-0.7,1.8,2470.27,13.31,0.058,113.1
2020-01-21T00:10:03,42.805,6.029,0.052,-0.012,-0.027,106.0,107.0,102.0,13.4,1505.3,322.9,-0.7,1.8,2470.307,13.31,0.053,103.0
2020-01-21T00:13:03,42.805,6.029,0.043,-0.026,-0.031,105.0,106.0,104.0,13.3,1505.3,328.1,-0.7,1.8,2470.279,13.32,0.05,121.2
2020-01-21T00:16:03,42.805,6.029,0.064,-0.029,-0.01,105.0,106.0,103.0,13.4,1505.3,324.2,-0.7,1.8,2470.329,13.32,0.07,114.4
2020-01-21T00:19:03,42.805,6.029,0.073,-0.006,-0.013,105.0,107.0,103.0,13.3,1505.3,325.4,-0.8,1.8,2470.296,13.32,0.073,94.7
2020-01-21T00:22:03,42.805,6.029,0.024,-0.047,-0.048,106.0,106.0,103.0,13.3,1505.3,327.3,-0.7,1.9,2470.29,13.32,0.052,153.0
2020-01-21T00:25:03,42.805,6.029,0.055,-0.012,-0.009,105.0,105.0,103.0,13.4,1505.3,324.8,-0.7,1.8,2470.31,13.32,0.056,102.3
2020-01-21T00:28:03,42.805,6.029,0.064,-0.034,-0.022,106.0,107.0,103.0,13.4,1505.3,324.2,-0.7,1.8,2470.316,13.32,0.072,118.0
2020-01-21T00:31:03,42.805,6.029,0.038,-0.027,-0.026,106.0,106.0,101.0,13.4,1505.3,327.9,-0.7,1.8,2470.289,13.32,0.046,125.4
2020-01-21T00:34:03,42.805,6.029,0.053,-0.039,0.003,106.0,106.0,102.0,13.3,1505.3,326.4,-0.7,1.9,2470.3,13.32,0.065,126.3
2020-01-21T00:37:03,42.805,6.029,0.043,-0.025,-0.029,106.0,107.0,102.0,13.4,1505.3,324.0,-0.7,1.8,2470.29,13.32,0.049,120.2
2020-01-21T00:40:03,42.805,6.029,0.072,-0.05,-0.019,106.0,105.0,102.0,13.3,1505.3,326.3,-0.7,1.9,2470.257,13.32,0.087,124.8
2020-01-21T00:43:03,42.805,6.029,0.046,-0.019,-0.032,106.0,108.0,102.0,13.4,1505.3,324.9,-0.7,1.9,2470.277,13.32,0.049,112.4
2020-01-21T00:46:03,42.805,6.029,0.062,-0.036,-0.02,105.0,106.0,103.0,13.3,1505.3,325.3,-0.7,1.8,2470.263,13.32,0.071,120.1
2020-01-21T00:49:03,42.805,6.029,0.043,-0.005,-0.038,105.0,107.0,101.0,13.3,1505.3,328.2,-0.7,1.8,2470.322,13.32,0.043,96.6
2020-01-21T00:52:03,42.805,6.029,0.059,-0.031,-0.008,106.0,106.0,102.0,13.4,1505.3,327.2,-0.7,1.8,2470.312,13.32,0.066,117.7
2020-01-21T00:55:03,42.805,6.029,0.072,-0.043,-0.004,104.0,106.0,103.0,13.4,1505.3,328.5,-0.7,1.8,2470.309,13.32,0.083,120.8
2020-01-21T00:58:03,42.805,6.029,0.051,-0.024,-0.025,105.0,107.0,102.0,13.3,1505.3,324.6,-0.7,1.9,2470.285,13.32,0.056,115.2
2020-01-21T01:04:03,42.805,6.029,0.055,-0.012,-0.01,106.0,108.0,104.0,13.4,1505.2,326.7,-0.7,1.8,2470.334,13.3,0.056,102.3
2020-01-21T01:07:03,42.805,6.029,0.054,-0.027,-0.014,105.0,106.0,104.0,13.4,1505.3,325.9,-0.7,1.9,2470.261,13.31,0.06,116.6
2020-01-21T01:10:03,42.805,6.029,0.037,-0.012,-0.044,106.0,105.0,103.0,13.3,1505.3,324.4,-0.8,1.8,2470.284,13.31,0.038,108.0
2020-01-21T01:13:03,42.805,6.029,0.062,-0.023,-0.03,106.0,107.0,102.0,13.3,1505.3,327.0,-0.7,1.8,2470.382,13.32,0.066,110.3
2020-01-21T01:16:03,42.805,6.029,0.072,-0.021,-0.035,106.0,107.0,103.0,13.4,1505.3,322.9,-0.7,1.8,2470.31,13.32,0.074,106.3
2020-01-21T01:19:03,42.805,6.029,0.044,-0.019,-0.001,105.0,107.0,101.0,13.4,1505.3,323.8,-0.7,1.8,2470.365,13.32,0.047,113.4
2020-01-21T01:22:03,42.805,6.029,0.052,-0.026,-0.023,105.0,105.0,104.0,13.4,1505.3,326.3,-0.7,1.8,2470.267,13.32,0.058,116.6
2020-01-21T01:25:03,42.805,6.029,0.059,-0.021,-0.031,105.0,105.0,103.0,13.4,1505.3,327.2,-0.7,1.9,2470.334,13.32,0.062,109.6
2020-01-21T01:28:03,42.805,6.029,0.035,-0.018,0.004,106.0,107.0,102.0,13.3,1505.3,325.1,-0.7,1.8,2470.292,13.32,0.039,117.2
2020-01-21T01:31:03,42.805,6.029,0.061,-0.033,0.005,105.0,108.0,102.0,13.3,1505.3,325.5,-0.7,1.9,2470.305,13.32,0.069,118.4
2020-01-21T01:34:03,42.805,6.029,0.069,-0.047,-0.006,106.0,106.0,102.0,13.3,1505.3,325.3,-0.7,1.8,2470.35,13.32,0.083,124.3
2020-01-21T01:37:03,42.805,6.029,0.057,-0.023,0.004,106.0,106.0,103.0,13.4,1505.3,324.1,-0.7,1.8,2470.3,13.32,0.061,112.0
2020-01-21T01:40:03,42.805,6.029,0.058,-0.017,-0.024,106.0,106.0,102.0,13.4,1505.3,325.0,-0.7,1.8,2470.362,13.32,0.06,106.3
2020-01-21T01:43:03,42.805,6.029,0.044,-0.015,-0.006,106.0,106.0,103.0,13.4,1505.3,325.4,-0.7,1.9,2470.357,13.32,0.046,108.8
2020-01-21T01:46:03,42.805,6.029,0.051,-0.007,-0.034,103.0,106.0,102.0,13.4,1505.3,324.8,-0.7,1.8,2470.352,13.32,0.051,97.8
2020-01-21T01:49:03,42.805,6.029,0.048,-0.024,-0.018,107.0,106.0,103.0,13.4,1505.3,328.5,-0.7,1.8,2470.35,13.32,0.053,116.6
2020-01-21T01:52:03,42.805,6.029,0.039,-0.025,-0.045,106.0,108.0,103.0,13.3,1505.3,325.8,-0.7,1.8,2470.345,13.32,0.046,122.7
2020-01-21T01:55:03,42.805,6.029,0.052,-0.016,-0.029,107.0,107.0,103.0,13.4,1505.3,325.3,-0.7,1.9,2470.325,13.32,0.054,107.1
2020-01-21T01:58:03,42.805,6.029,0.076,-0.028,-0.041,106.0,105.0,103.0,13.3,1505.3,324.8,-0.7,1.9,2470.304,13.32,0.08,110.2
2020-01-21T02:04:03,42.805,6.029,0.056,-0.028,-0.018,106.0,107.0,102.0,13.4,1505.2,326.6,-0.7,1.8,2470.392,13.3,0.062,116.6
2020-01-21T02:07:03,42.805,6.029,0.058,-0.007,-0.027,106.0,107.0,103.0,13.3,1505.3,326.0,-0.8,1.9,2470.349,13.31,0.058,96.9
2020-01-21T02:10:03,42.805,6.029,0.035,-0.028,-0.014,107.0,107.0,103.0,13.4,1505.3,324.7,-0.8,1.8,2470.395,13.31,0.044,128.7
2020-01-21T02:13:03,42.805,6.029,0.045,-0.039,-0.047,107.0,106.0,102.0,13.4,1505.3,324.1,-0.7,1.8,2470.352,13.32,0.059,130.9
2020-01-21T02:16:03,42.805,6.029,0.057,-0.017,-0.036,107.0,107.0,104.0,13.3,1505.3,324.5,-0.7,1.8,2470.355,13.32,0.059,106.6
2020-01-21T02:19:03,42.805,6.029,0.073,-0.035,-0.017,107.0,107.0,102.0,13.4,1505.3,326.0,-0.7,1.8,2470.401,13.32,0.08,115.6
2020-01-21T02:22:03,42.805,6.029,0.048,-0.037,-0.026,107.0,106.0,103.0,13.4,1505.3,325.3,-0.7,1.8,2470.357,13.32,0.06,127.6
2020-01-21T02:25:03,42.805,6.029,0.053,-0.001,-0.023,105.0,107.0,103.0,13.4,1505.3,326.0,-0.7,1.9,2470.368,13.32,0.053,91.1
2020-01-21T02:28:03,42.805,6.029,0.025,-0.008,-0.01,107.0,108.0,101.0,13.4,1505.3,326.8,-0.7,1.8,2470.368,13.32,0.026,107.7
2020-01-21T02:31:03,42.805,6.029,0.036,-0.042,-0.008,107.0,108.0,103.0,13.4,1505.3,325.4,-0.7,1.8,2470.371,13.32,0.055,139.4
2020-01-21T02:34:03,42.805,6.029,0.052,-0.016,-0.029,106.0,107.0,103.0,13.3,1505.3,325.7,-0.7,1.8,2470.38,13.32,0.054,107.1
2020-01-21T02:37:03,42.805,6.029,0.073,-0.007,-0.028,106.0,106.0,103.0,13.4,1505.3,325.6,-0.7,1.8,2470.35,13.32,0.073,95.5
2020-01-21T02:40:03,42.805,6.029,0.066,0.005,-0.022,107.0,106.0,104.0,13.4,1505.3,324.2,-0.7,1.8,2470.366,13.32,0.066,85.7
2020-01-21T02:43:03,42.805,6.029,0.061,-0.015,-0.003,108.0,106.0,103.0,13.4,1505.3,322.9,-0.7,1.8,2470.359,13.32,0.062,103.8
2020-01-21T02:46:03,42.805,6.029,0.054,-0.033,-0.031,105.0,107.0,103.0,13.3,1505.3,326.8,-0.7,1.9,2470.368,13.32,0.063,121.4
2020-01-21T02:49:03,42.805,6.029,0.051,-0.041,0.005,107.0,108.0,103.0,13.4,1505.3,327.0,-0.7,1.9,2470.394,13.32,0.065,128.8
2020-01-21T02:52:03,42.805,6.029,0.073,-0.018,-0.024,106.0,108.0,103.0,13.3,1505.3,327.9,-0.7,1.8,2470.366,13.32,0.075,103.8
2020-01-21T02:55:03,42.805,6.029,0.045,-0.013,-0.046,107.0,106.0,104.0,13.4,1505.3,325.3,-0.7,1.8,2470.394,13.32,0.046,106.1
2020-01-21T02:58:03,42.805,6.029,0.062,-0.02,-0.024,106.0,107.0,103.0,13.4,1505.3,326.7,-0.7,1.8,2470.372,13.32,0.065,107.9
2020-01-21T03:04:03,42.805,6.029,0.08,-0.041,-0.02,105.0,106.0,103.0,13.3,1505.2,328.0,-0.7,1.8,2470.415,13.3,0.089,117.1
2020-01-21T03:07:03,42.805,6.029,0.077,-0.043,0.012,106.0,106.0,104.0,13.3,1505.3,325.3,-0.8,1.9,2470.361,13.31,0.088,119.2
2020-01-21T03:10:03,42.805,6.029,0.068,-0.041,-0.027,107.0,107.0,103.0,13.3,1505.3,324.6,-0.7,1.8,2470.428,13.31,0.079,121.1
2020-01-21T03:13:03,42.805,6.029,0.059,-0.02,-0.012,105.0,106.0,103.0,13.4,1505.3,328.1,-0.7,1.9,2470.373,13.32,0.062,108.7
2020-01-21T03:16:03,42.805,6.029,0.05,-0.027,-0.03,106.0,108.0,104.0,13.4,1505.3,326.7,-0.7,1.8,2470.404,13.32,0.056,118.4
2020-01-21T03:19:03,42.805,6.029,0.065,-0.031,-0.019,106.0,106.0,103.0,13.4,1505.3,322.9,-0.7,1.8,2470.38,13.32,0.072,115.5
2020-01-21T03:22:03,42.805,6.029,0.052,-0.015,-0.013,107.0,106.0,104.0,13.3,1505.3,327.6,-0.7,1.8,2470.397,13.32,0.054,106.1
2020-01-21T03:25:03,42.805,6.029,0.054,-0.019,-0.029,107.0,107.0,103.0,13.4,1505.3,328.3,-0.7,1.9,2470.395,13.32,0.057,109.4
2020-01-21T03:28:03,42.805,6.029,0.05,-0.034,-0.029,107.0,109.0,103.0,13.4,1505.3,328.6,-0.7,1.8,2470.4,13.32,0.06,124.2
2020-01-21T03:31:03,42.805,6.029,0.066,-0.035,-0.005,107.0,107.0,103.0,13.3,1505.3,325.6,-0.7,1.8,2470.4,13.32,0.074,117.9
2020-01-21T03:34:03,42.805,6.029,0.04,-0.01,-0.009,106.0,107.0,103.0,13.4,1505.3,323.0,-0.7,1.8,2470.43,13.32,0.041,104.0
2020-01-21T03:37:03,42.805,6.029,0.057,-0.012,0.011,104.0,108.0,103.0,13.4,1505.3,328.4,-0.7,1.8,2470.41,13.32,0.058,101.9
2020-01-21T03:40:03,42.805,6.029,0.066,-0.015,-0.044,106.0,108.0,103.0,13.4,1505.3,325.3,-0.7,1.8,2470.413,13.32,0.067,102.8
2020-01-21T03:43:03,42.805,6.029,0.058,-0.016,-0.012,106.0,107.0,103.0,13.4,1505.3,324.5,-0.7,1.8,2470.385,13.32,0.06,105.4
2020-01-21T03:46:03,42.805,6.029,0.06,-0.022,-0.045,108.0,106.0,103.0,13.4,1505.3,325.0,-0.7,1.9,2470.421,13.32,0.063,110.1
2020-01-21T03:49:03,42.805,6.029,0.061,-0.011,-0.037,108.0,105.0,102.0,13.4,1505.3,326.0,-0.7,1.9,2470.372,13.32,0.061,100.2
2020-01-21T03:52:03,42.805,6.029,0.067,-0.032,0.0,107.0,106.0,103.0,13.4,1505.3,326.2,-0.7,1.9,2470.455,13.32,0.074,115.5
2020-01-21T03:55:03,42.805,6.029,0.052,-0.03,-0.015,107.0,106.0,103.0,13.4,1505.3,326.0,-0.7,1.8,2470.39,13.32,0.06,120.0
2020-01-21T03:58:03,42.805,6.029,0.052,-0.031,-0.017,106.0,105.0,103.0,13.4,1505.3,326.6,-0.7,1.9,2470.366,13.32,0.06,120.8
2020-01-21T04:04:03,42.805,6.029,0.04,-0.001,0.008,106.0,107.0,103.0,13.4,1505.2,326.0,-0.8,1.8,2470.464,13.3,0.04,91.4
2020-01-21T04:07:03,42.805,6.029,0.097,-0.02,-0.001,106.0,109.0,104.0,13.4,1505.3,327.3,-0.7,1.8,2470.427,13.31,0.099,101.7
2020-01-21T04:10:03,42.805,6.029,0.072,-0.022,-0.041,106.0,107.0,103.0,13.4,1505.3,327.9,-0.7,1.8,2470.443,13.31,0.075,107.0
2020-01-21T04:16:03,42.805,6.029,0.071,-0.025,0.002,107.0,107.0,104.0,13.4,1505.2,327.2,-0.8,1.8,2470.479,13.3,0.075,109.4
2020-01-21T04:19:03,42.805,6.029,0.062,-0.018,-0.006,107.0,107.0,103.0,13.4,1505.3,325.0,-0.7,1.8,2470.405,13.31,0.064,106.2
2020-01-21T04:22:03,42.805,6.029,0.081,-0.036,0.007,105.0,107.0,103.0,13.4,1505.3,324.7,-0.7,1.9,2470.461,13.31,0.088,114.0
2020-01-21T04:25:03,42.805,6.029,0.075,-0.011,0.0,106.0,108.0,104.0,13.4,1505.3,327.2,-0.7,1.8,2470.463,13.31,0.075,98.3
2020-01-21T04:28:03,42.805,6.029,0.071,-0.044,-0.016,106.0,106.0,103.0,13.4,1505.3,327.5,-0.7,1.8,2470.423,13.32,0.083,121.8
2020-01-21T04:31:03,42.805,6.029,0.057,-0.029,0.005,106.0,106.0,103.0,13.4,1505.3,326.4,-0.7,1.8,2470.39,13.32,0.063,117.0
2020-01-21T04:34:03,42.805,6.029,0.073,-0.036,-0.002,106.0,106.0,104.0,13.4,1505.3,326.1,-0.7,1.8,2470.441,13.32,0.081,116.2
2020-01-21T04:37:03,42.805,6.029,0.072,-0.023,-0.051,107.0,107.0,104.0,13.4,1505.3,324.4,-0.7,1.8,2470.433,13.32,0.075,107.7
2020-01-21T04:40:03,42.805,6.029,0.087,-0.043,0.029,107.0,106.0,104.0,13.4,1505.3,326.5,-0.7,1.8,2470.425,13.32,0.097,116.3
2020-01-21T04:43:03,42.805,6.029,0.054,-0.018,0.0,107.0,107.0,102.0,13.3,1505.3,327.9,-0.7,1.8,2470.445,13.32,0.056,108.4
2020-01-21T04:46:03,42.805,6.029,0.061,-0.03,0.0,106.0,107.0,104.0,13.4,1505.3,325.9,-0.7,1.9,2470.438,13.32,0.067,116.2
2020-01-21T04:49:03,42.805,6.029,0.04,-0.024,-0.002,106.0,107.0,103.0,13.4,1505.3,324.1,-0.8,1.8,2470.482,13.32,0.046,121.0
2020-01-21T04:52:03,42.805,6.029,0.061,-0.018,-0.012,106.0,107.0,104.0,13.3,1505.3,328.1,-0.7,1.8,2470.391,13.32,0.063,106.4
2020-01-21T04:55:03,42.805,6.029,0.069,-0.032,-0.014,108.0,108.0,104.0,13.4,1505.3,322.9,-0.7,1.8,2470.466,13.32,0.076,114.9
2020-01-21T04:58:03,42.805,6.029,0.076,-0.035,-0.016,107.0,106.0,104.0,13.4,1505.3,323.3,-0.7,1.8,2470.44,13.32,0.083,114.7
2020-01-21T05:04:03,42.805,6.029,0.069,-0.022,-0.01,107.0,106.0,103.0,13.4,1505.2,323.3,-0.7,1.8,2470.43,13.3,0.072,107.7
2020-01-21T05:07:03,42.805,6.029,0.07,-0.03,-0.018,106.0,107.0,103.0,13.4,1505.3,326.4,-0.7,1.9,2470.479,13.31,0.076,113.2
2020-01-21T05:10:03,42.805,6.029,0.05,-0.014,-0.023,106.0,106.0,103.0,13.4,1505.3,323.3,-0.8,1.8,2470.487,13.31,0.051,105.6
2020-01-21T05:13:03,42.805,6.029,0.061,-0.018,-0.011,107.0,108.0,103.0,13.4,1505.3,328.0,-0.7,1.8,2470.437,13.32,0.063,106.4
2020-01-21T05:16:03,42.805,6.029,0.062,-0.018,0.013,108.0,108.0,102.0,13.3,1505.3,324.2,-0.7,1.9,2470.418,13.32,0.064,106.2
2020-01-21T05:19:03,42.805,6.029,0.081,-0.023,-0.014,108.0,107.0,104.0,13.3,1505.3,323.5,-0.7,1.9,2470.455,13.32,0.084,105.8
2020-01-21T05:22:03,42.805,6.029,0.072,-0.028,-0.029,106.0,106.0,104.0,13.4,1505.3,326.1,-0.7,1.8,2470.462,13.32,0.077,111.2
2020-01-21T05:25:03,42.805,6.029,0.073,-0.014,-0.019,106.0,105.0,103.0,13.4,1505.3,326.0,-0.7,1.8,2470.464,13.32,0.074,100.9
2020-01-21T05:28:03,42.805,6.029,0.072,-0.025,-0.05,107.0,107.0,103.0,13.3,1505.3,325.2,-0.7,1.8,2470.439,13.32,0.076,109.1
2020-01-21T05:31:03,42.805,6.029,0.069,-0.024,-0.018,106.0,107.0,103.0,13.4,1505.3,324.2,-0.7,1.9,2470.459,13.32,0.073,109.2
2020-01-21T05:34:03,42.805,6.029,0.083,-0.025,-0.005,108.0,108.0,102.0,13.4,1505.3,324.9,-0.7,1.8,2470.42,13.32,0.086,106.8
2020-01-21T05:37:03,42.805,6.029,0.074,-0.026,-0.034,106.0,108.0,103.0,13.3,1505.3,327.9,-0.7,1.8,2470.428,13.32,0.078,109.4
2020-01-21T05:40:03,42.805,6.029,0.077,-0.03,-0.02,106.0,108.0,104.0,13.4,1505.3,325.2,-0.7,1.8,2470.45,13.32,0.082,111.3
2020-01-21T05:43:03,42.805,6.029,0.086,-0.028,-0.009,108.0,107.0,104.0,13.4,1505.3,323.8,-0.7,1.8,2470.459,13.32,0.09,108.0
2020-01-21T05:46:03,42.805,6.029,0.078,-0.039,0.003,106.0,107.0,102.0,13.3,1505.3,325.5,-0.7,1.8,2470.424,13.32,0.087,116.6
2020-01-21T05:49:03,42.805,6.029,0.05,-0.04,-0.004,107.0,108.0,103.0,13.4,1505.3,325.5,-0.7,1.8,2470.442,13.32,0.064,128.7
2020-01-21T05:52:03,42.805,6.029,0.071,-0.038,0.005,106.0,108.0,103.0,13.4,1505.3,326.5,-0.7,1.8,2470.4,13.32,0.08,118.2
2020-01-21T05:55:03,42.805,6.029,0.088,-0.05,0.015,106.0,106.0,103.0,13.3,1505.3,323.2,-0.7,1.8,2470.426,13.32,0.101,119.6
2020-01-21T05:58:03,42.805,6.029,0.072,-0.019,-0.005,107.0,106.0,102.0,13.4,1505.3,327.8,-0.7,1.8,2470.442,13.32,0.074,104.8
2020-01-21T06:04:03,42.805,6.029,0.056,-0.017,-0.009,107.0,107.0,103.0,13.4,1505.2,323.5,-0.7,1.9,2470.462,13.3,0.058,106.9
2020-01-21T06:07:03,42.805,6.029,0.077,-0.02,0.0,106.0,106.0,103.0,13.4,1505.3,323.8,-0.7,1.8,2470.438,13.31,0.079,104.6
2020-01-21T06:10:03,42.805,6.029,0.044,-0.041,-0.041,107.0,106.0,104.0,13.4,1505.3,326.9,-0.7,1.9,2470.445,13.31,0.06,133.0
2020-01-21T06:13:03,42.805,6.029,0.074,-0.02,-0.014,106.0,107.0,103.0,13.3,1505.3,326.2,-0.7,1.8,2470.425,13.31,0.076,105.1
2020-01-21T06:16:03,42.805,6.029,0.079,-0.033,0.0,107.0,106.0,103.0,13.3,1505.3,325.8,-0.7,1.8,2470.464,13.32,0.085,112.7
2020-01-21T06:19:03,42.805,6.029,0.076,-0.022,0.008,107.0,106.0,103.0,13.3,1505.3,323.2,-0.7,1.8,2470.431,13.32,0.079,106.1
2020-01-21T06:22:03,42.805,6.029,0.088,-0.019,-0.005,107.0,107.0,103.0,13.3,1505.3,327.1,-0.7,1.8,2470.414,13.32,0.09,102.2
2020-01-21T06:25:03,42.805,6.029,0.072,-0.015,-0.003,106.0,107.0,102.0,13.4,1505.3,327.0,-0.7,1.8,2470.405,13.32,0.073,101.8
2020-01-21T06:28:03,42.805,6.029,0.089,-0.024,-0.018,107.0,106.0,103.0,13.4,1505.3,325.5,-0.7,1.8,2470.449,13.32,0.092,105.1
2020-01-21T06:31:03,42.805,6.029,0.081,-0.022,-0.032,106.0,105.0,103.0,13.4,1505.3,326.0,-0.7,1.8,2470.452,13.32,0.083,105.2
2020-01-21T06:34:03,42.805,6.029,0.092,-0.01,-0.031,107.0,107.0,104.0,13.4,1505.3,323.6,-0.7,1.8,2470.475,13.32,0.092,96.2
2020-01-21T06:37:03,42.805,6.029,0.065,-0.025,-0.007,106.0,107.0,103.0,13.3,1505.3,327.3,-0.7,1.8,2470.437,13.32,0.069,111.0
2020-01-21T06:40:03,42.805,6.029,0.068,-0.013,-0.004,107.0,106.0,102.0,13.4,1505.3,325.1,-0.7,1.9,2470.424,13.32,0.069,100.8
2020-01-21T06:43:03,42.805,6.029,0.09,-0.04,0.012,106.0,106.0,103.0,13.4,1505.3,325.0,-0.7,1.8,2470.386,13.32,0.098,114.0
2020-01-21T06:46:03,42.805,6.029,0.087,-0.007,-0.004,107.0,106.0,103.0,13.3,1505.3,326.0,-0.7,1.8,2470.465,13.32,0.087,94.6
2020-01-21T06:49:03,42.805,6.029,0.091,-0.036,0.022,106.0,106.0,103.0,13.4,1505.3,324.6,-0.7,1.8,2470.408,13.32,0.097,111.6
2020-01-21T06:52:03,42.805,6.029,0.083,-0.031,0.001,106.0,106.0,103.0,13.4,1505.3,324.8,-0.7,1.8,2470.411,13.32,0.088,110.5
2020-01-21T06:55:03,42.805,6.029,0.076,-0.022,0.004,106.0,106.0,102.0,13.4,1505.3,324.1,-0.7,1.8,2470.414,13.32,0.079,106.1
2020-01-21T07:04:03,42.805,6.029,0.074,-0.021,0.009,106.0,106.0,102.0,13.4,1505.2,323.0,-0.7,1.8,2470.457,13.29,0.076,105.8
2020-01-21T07:07:03,42.805,6.029,0.065,-0.04,-0.019,106.0,106.0,102.0,13.3,1505.2,328.4,-0.7,1.9,2470.472,13.3,0.076,121.6
2020-01-21T07:10:03,42.805,6.029,0.077,-0.008,0.016,105.0,106.0,103.0,13.4,1505.3,327.5,-0.7,1.8,2470.473,13.31,0.077,95.9
2020-01-21T07:13:03,42.805,6.029,0.066,-0.03,-0.003,105.0,107.0,104.0,13.4,1505.3,324.5,-0.7,1.8,2470.49,13.31,0.072,114.4
2020-01-21T07:16:03,42.805,6.029,0.061,-0.025,-0.009,107.0,107.0,102.0,13.4,1505.3,326.7,-0.7,1.8,2470.519,13.32,0.065,112.3
2020-01-21T07:19:03,42.805,6.029,0.079,-0.039,-0.028,105.0,106.0,103.0,13.3,1505.3,328.1,-0.7,1.8,2470.465,13.32,0.088,116.3
2020-01-21T07:22:03,42.805,6.029,0.075,-0.042,-0.018,105.0,107.0,103.0,13.4,1505.3,326.2,-0.7,1.8,2470.439,13.32,0.085,119.3
2020-01-21T07:25:03,42.805,6.029,0.09,-0.003,-0.005,106.0,107.0,103.0,13.4,1505.3,327.4,-0.7,1.8,2470.446,13.32,0.09,91.9
2020-01-21T07:28:03,42.805,6.029,0.083,-0.038,-0.024,106.0,107.0,103.0,13.4,1505.3,326.5,-0.7,1.8,2470.403,13.32,0.091,114.6
2020-01-21T07:31:03,42.805,6.029,0.071,-0.027,-0.015,106.0,106.0,103.0,13.4,1505.3,326.7,-0.7,1.8,2470.416,13.32,0.075,110.8
2020-01-21T07:34:03,42.805,6.029,0.074,-0.035,-0.008,108.0,106.0,103.0,13.4,1505.3,327.0,-0.7,1.8,2470.469,13.32,0.081,115.3
2020-01-21T07:37:02,42.805,6.029,0.075,-0.036,-0.005,106.0,106.0,102.0,13.4,1505.3,328.7,-0.7,1.8,2470.402,13.32,0.083,115.6
2020-01-21T07:40:03,42.805,6.029,0.068,-0.03,-0.001,106.0,107.0,102.0,13.3,1505.3,323.5,-0.7,1.8,2470.437,13.32,0.074,113.8
2020-01-21T07:43:03,42.805,6.029,0.093,-0.03,-0.022,106.0,105.0,103.0,13.4,1505.3,324.0,-0.7,1.8,2470.38,13.32,0.097,107.9
2020-01-21T07:46:03,42.805,6.029,0.072,-0.023,-0.014,105.0,105.0,103.0,13.3,1505.3,325.0,-0.7,1.8,2470.413,13.32,0.075,107.7
2020-01-21T07:49:03,42.805,6.029,0.074,-0.017,0.004,105.0,107.0,103.0,13.4,1505.3,324.3,-0.7,1.8,2470.433,13.32,0.075,102.9
2020-01-21T07:52:03,42.805,6.029,0.07,-0.022,-0.031,106.0,105.0,102.0,13.3,1505.3,328.4,-0.7,1.8,2470.436,13.32,0.073,107.4
2020-01-21T07:55:03,42.805,6.029,0.065,-0.038,0.0,107.0,106.0,102.0,13.4,1505.3,326.6,-0.7,1.8,2470.409,13.32,0.075,120.3
2020-01-21T07:58:03,42.805,6.029,0.099,-0.029,-0.004,105.0,106.0,103.0,13.4,1505.3,323.4,-0.7,1.9,2470.41,13.32,0.103,106.3
2020-01-21T08:04:03,42.805,6.029,0.044,-0.01,-0.02,106.0,107.0,103.0,13.3,1505.2,328.4,-0.7,1.8,2470.406,13.3,0.045,102.8
2020-01-21T08:07:03,42.805,6.029,0.075,-0.043,-0.002,106.0,107.0,102.0,13.4,1505.3,328.3,-0.7,1.8,2470.433,13.31,0.086,119.8
2020-01-21T08:10:03,42.805,6.029,0.065,-0.028,0.005,107.0,106.0,104.0,13.3,1505.3,327.2,-0.7,1.9,2470.407,13.31,0.07,113.3
2020-01-21T08:13:03,42.805,6.029,0.081,-0.02,0.003,107.0,106.0,103.0,13.3,1505.3,323.7,-0.7,1.8,2470.419,13.31,0.083,103.9
2020-01-21T08:16:03,42.805,6.029,0.089,-0.039,-0.014,106.0,106.0,103.0,13.4,1505.3,327.8,-0.7,1.8,2470.404,13.32,0.097,113.7
2020-01-21T08:19:03,42.805,6.029,0.078,-0.045,-0.001,107.0,107.0,103.0,13.4,1505.3,325.8,-0.7,1.8,2470.404,13.32,0.09,120.0
2020-01-21T08:22:03,42.805,6.029,0.093,-0.038,-0.013,106.0,106.0,103.0,13.4,1505.3,324.9,-0.7,1.8,2470.384,13.32,0.1,112.2
2020-01-21T08:25:02,42.805,6.029,0.077,-0.031,0.0,107.0,106.0,102.0,13.4,1505.3,323.5,-0.7,1.8,2470.424,13.32,0.083,111.9
2020-01-21T08:31:02,42.805,6.029,0.067,-0.024,-0.01,107.0,105.0,103.0,13.4,1505.2,326.9,-0.7,1.8,2470.392,13.3,0.071,109.7
2020-01-21T08:34:03,42.805,6.029,0.07,-0.019,0.016,106.0,106.0,103.0,13.4,1505.3,322.8,-0.7,1.8,2470.421,13.31,0.072,105.2
2020-01-21T08:37:03,42.805,6.029,0.073,-0.028,-0.005,106.0,106.0,102.0,13.3,1505.3,327.3,-0.7,1.8,2470.388,13.31,0.078,111.0
2020-01-21T08:40:03,42.805,6.029,0.076,-0.038,-0.013,105.0,107.0,103.0,13.3,1505.3,326.9,-0.7,1.9,2470.429,13.31,0.084,116.6
2020-01-21T08:43:03,42.805,6.029,0.082,-0.033,-0.009,106.0,105.0,104.0,13.4,1505.3,324.0,-0.7,1.8,2470.416,13.32,0.088,111.9
2020-01-21T08:49:03,42.805,6.029,0.093,-0.02,0.016,105.0,106.0,103.0,13.3,1505.2,323.1,-0.7,1.8,2470.42,13.3,0.095,102.1
2020-01-21T08:52:03,42.805,6.029,0.066,-0.036,0.014,105.0,106.0,102.0,13.4,1505.3,324.5,-0.7,1.8,2470.412,13.31,0.075,118.6
2020-01-21T08:55:03,42.805,6.029,0.075,-0.023,0.0,105.0,106.0,103.0,13.4,1505.3,322.7,-0.7,1.8,2470.416,13.31,0.078,107.0
2020-01-21T08:58:03,42.805,6.029,0.084,-0.043,0.009,104.0,105.0,102.0,13.4,1505.3,326.9,-0.7,1.8,2470.401,13.31,0.094,117.1
2020-01-21T09:04:03,42.805,6.029,0.053,-0.033,-0.025,107.0,106.0,103.0,13.4,1505.2,326.0,-0.7,1.8,2470.428,13.3,0.062,121.9
2020-01-21T09:07:03,42.805,6.029,0.07,-0.043,-0.034,105.0,106.0,104.0,13.4,1505.3,323.0,-0.7,1.8,2470.425,13.31,0.082,121.6
2020-01-21T09:10:03,42.805,6.029,0.095,-0.036,-0.017,106.0,106.0,102.0,13.4,1505.3,325.4,-0.7,1.9,2470.418,13.31,0.101,110.8
2020-01-21T09:13:03,42.805,6.029,0.089,-0.049,-0.02,106.0,105.0,102.0,13.4,1505.3,328.0,-0.7,1.9,2470.394,13.31,0.101,118.8
2020-01-21T09:16:03,42.805,6.029,0.079,-0.04,-0.004,105.0,105.0,102.0,13.3,1505.3,325.0,-0.7,1.8,2470.394,13.32,0.088,116.9
2020-01-21T09:19:03,42.805,6.029,0.089,-0.006,-0.002,106.0,105.0,103.0,13.3,1505.3,323.9,-0.7,1.8,2470.374,13.32,0.089,93.9
2020-01-21T09:22:03,42.805,6.029,0.077,-0.019,-0.016,106.0,108.0,103.0,13.4,1505.3,325.8,-0.7,1.8,2470.387,13.32,0.079,103.9
2020-01-21T09:25:03,42.805,6.029,0.085,-0.031,0.024,105.0,105.0,103.0,13.4,1505.3,324.7,-0.7,1.9,2470.386,13.32,0.09,110.0
2020-01-21T09:28:03,42.805,6.029,0.086,-0.046,-0.01,106.0,105.0,103.0,13.4,1505.3,328.4,-0.7,1.8,2470.397,13.32,0.097,118.1
2020-01-21T09:31:03,42.805,6.029,0.066,-0.039,-0.011,106.0,105.0,104.0,13.4,1505.3,324.3,-0.7,1.8,2470.379,13.32,0.076,120.6
2020-01-21T09:34:03,42.805,6.029,0.08,-0.036,0.008,106.0,106.0,103.0,13.4,1505.3,325.9,-0.7,1.8,2470.403,13.32,0.087,114.2
2020-01-21T09:37:03,42.805,6.029,0.101,-0.042,-0.032,106.0,105.0,103.0,13.3,1505.3,325.7,-0.7,1.9,2470.363,13.32,0.109,112.6
2020-01-21T09:40:03,42.805,6.029,0.083,-0.053,-0.032,106.0,106.0,103.0,13.4,1505.3,324.5,-0.7,1.8,2470.33,13.32,0.098,122.6
2020-01-21T09:43:03,42.805,6.029,0.084,-0.007,-0.02,107.0,106.0,102.0,13.4,1505.3,324.2,-0.7,1.8,2470.365,13.32,0.084,94.8
2020-01-21T09:46:03,42.805,6.029,0.054,-0.025,-0.014,107.0,105.0,103.0,13.4,1505.3,326.9,-0.7,1.9,2470.349,13.32,0.059,114.8
2020-01-21T09:49:03,42.805,6.029,0.078,-0.035,-0.008,107.0,105.0,102.0,13.4,1505.3,324.3,-0.7,1.8,2470.351,13.32,0.085,114.2
2020-01-21T09:52:03,42.805,6.029,0.099,-0.026,-0.008,106.0,106.0,103.0,13.3,1505.3,326.0,-0.7,1.9,2470.355,13.32,0.102,104.7
2020-01-21T09:55:03,42.805,6.029,0.082,-0.041,-0.001,106.0,106.0,104.0,13.4,1505.3,324.7,-0.7,1.8,2470.323,13.32,0.091,116.6
2020-01-21T09:58:03,42.805,6.029,0.064,-0.018,0.009,106.0,106.0,103.0,13.4,1505.3,324.7,-0.7,1.8,2470.354,13.32,0.066,105.7
2020-01-21T10:04:03,42.805,6.029,0.094,-0.033,-0.035,106.0,105.0,102.0,13.3,1505.2,323.9,-0.7,1.8,2470.327,13.3,0.099,109.3
2020-01-21T10:07:03,42.805,6.029,0.091,-0.064,-0.007,106.0,106.0,103.0,13.3,1505.3,325.0,-0.7,1.8,2470.392,13.31,0.111,125.1
2020-01-21T10:10:03,42.805,6.029,0.097,-0.041,-0.012,105.0,105.0,103.0,13.4,1505.3,326.1,-0.7,1.8,2470.364,13.31,0.105,112.9